| time (UTC) | temp F | wind direction | speed MPH | gust MPH | rain 1hr in | rain 24hr in | rain mn in | humidity % | barometer mb |
| 20260510204533 | 58 | 79 | 0.0 | 3.0 | 0.01 | 0.76 | 0.63 | 75 | 1010.9 |
| 20260510204027 | 58 | 105 | 0.0 | 3.0 | 0.01 | 0.76 | 0.63 | 75 | 1011.0 |
| 20260510203521 | 57 | 110 | 1.0 | 3.0 | 0.02 | 0.76 | 0.63 | 76 | 1010.9 |
| 20260510203015 | 57 | 131 | 1.0 | 3.0 | 0.05 | 0.76 | 0.63 | 78 | 1010.9 |
| 20260510202731 | 56 | 93 | 1.0 | 3.0 | 0.13 | 0.75 | 0.62 | 77 | 1010.9 |
| 20260510202004 | 56 | 84 | 0.0 | 2.0 | 0.30 | 0.76 | 0.62 | 74 | 1011.0 |
| 20260510201456 | 56 | 84 | 1.0 | 2.0 | 0.48 | 0.76 | 0.62 | 74 | 1011.3 |
| 20260510200949 | 57 | 84 | 1.0 | 3.0 | 0.60 | 0.76 | 0.62 | 73 | 1011.2 |
| 20260510200443 | 57 | 83 | 0.0 | 3.0 | 0.61 | 0.76 | 0.62 | 75 | 1011.3 |
| 20260510195937 | 57 | 229 | 0.0 | 1.0 | 0.61 | 0.77 | 0.62 | 74 | 1011.3 |
| 20260510195431 | 57 | 229 | 0.0 | 1.0 | 0.61 | 0.77 | 0.62 | 74 | 1011.4 |
| 20260510194925 | 58 | 229 | 0.0 | 3.0 | 0.61 | 0.78 | 0.62 | 73 | 1011.4 |
| 20260510194420 | 58 | 229 | 0.0 | 3.0 | 0.61 | 0.78 | 0.62 | 75 | 1011.2 |
| 20260510193913 | 58 | 355 | 0.0 | 4.0 | 0.61 | 0.79 | 0.62 | 74 | 1011.2 |
| 20260510193408 | 58 | 355 | 1.0 | 4.0 | 0.59 | 0.78 | 0.61 | 73 | 1011.2 |
| 20260510192901 | 58 | 350 | 0.0 | 3.0 | 0.55 | 0.74 | 0.57 | 73 | 1011.6 |
| 20260510192354 | 59 | 350 | 1.0 | 3.0 | 0.44 | 0.64 | 0.46 | 72 | 1011.5 |
| 20260510191849 | 60 | 350 | 1.0 | 3.0 | 0.25 | 0.46 | 0.28 | 70 | 1011.3 |
| 20260510191343 | 62 | 49 | 0.0 | 2.0 | 0.09 | 0.30 | 0.12 | 69 | 1010.8 |
| 20260510190837 | 63 | 51 | 0.0 | 2.0 | 0.01 | 0.23 | 0.02 | 69 | 1010.5 |
| 20260510190331 | 64 | 51 | 1.0 | 3.0 | 0.00 | 0.22 | 0.01 | 65 | 1010.2 |
| 20260510185826 | 64 | 51 | 1.0 | 3.0 | 0.00 | 0.23 | 0.01 | 62 | 1010.1 |
| 20260510185319 | 65 | 51 | 1.0 | 3.0 | 0.00 | 0.23 | 0.01 | 60 | 1010.2 |
| 20260510185035 | 66 | 51 | 1.0 | 3.0 | 0.00 | 0.23 | 0.01 | 58 | 1010.4 |
| 20260510184307 | 67 | 51 | 1.0 | 2.0 | 0.00 | 0.24 | 0.01 | 57 | 1010.4 |
| 20260510183801 | 67 | 51 | 1.0 | 3.0 | 0.00 | 0.24 | 0.01 | 57 | 1010.5 |
| 20260510183256 | 67 | 44 | 2.0 | 4.0 | 0.00 | 0.25 | 0.01 | 56 | 1010.4 |
| 20260510182750 | 67 | 319 | 2.0 | 4.0 | 0.00 | 0.25 | 0.01 | 56 | 1010.5 |
| 20260510182243 | 66 | 84 | 2.0 | 4.0 | 0.00 | 0.25 | 0.01 | 58 | 1010.6 |
| 20260510181955 | 66 | 65 | 2.0 | 6.0 | 0.00 | 0.26 | 0.01 | 58 | 1010.6 |
| 20260510181231 | 66 | 101 | 1.0 | 6.0 | 0.00 | 0.26 | 0.01 | 59 | 1010.7 |
| 20260510180725 | 65 | 101 | 1.0 | 4.0 | 0.00 | 0.26 | 0.01 | 60 | 1010.7 |
| 20260510180219 | 65 | 101 | 1.0 | 4.0 | 0.00 | 0.27 | 0.01 | 58 | 1010.8 |
| 20260510175713 | 66 | 26 | 1.0 | 4.0 | 0.00 | 0.27 | 0.01 | 60 | 1010.9 |
| 20260510175207 | 66 | 60 | 2.0 | 4.0 | 0.00 | 0.27 | 0.01 | 59 | 1011.0 |
| 20260510174701 | 67 | 60 | 2.0 | 4.0 | 0.00 | 0.27 | 0.01 | 56 | 1011.1 |
| 20260510174155 | 68 | 65 | 1.0 | 3.0 | 0.00 | 0.27 | 0.01 | 58 | 1011.1 |
| 20260510173649 | 67 | 310 | 0.0 | 3.0 | 0.00 | 0.27 | 0.01 | 56 | 1011.2 |
| 20260510173143 | 67 | 225 | 0.0 | 0.0 | 0.00 | 0.27 | 0.01 | 59 | 1011.3 |
| 20260510172637 | 66 | 250 | 0.0 | 0.0 | 0.00 | 0.27 | 0.01 | 59 | 1011.4 |
| 20260510172130 | 66 | 186 | 0.0 | 0.0 | 0.00 | 0.27 | 0.01 | 59 | 1011.3 |
| 20260510171625 | 65 | 160 | 0.0 | 0.0 | 0.00 | 0.27 | 0.01 | 59 | 1011.4 |
| 20260510171340 | 65 | 184 | 0.0 | 0.0 | 0.00 | 0.27 | 0.01 | 62 | 1011.5 |
| 20260510170830 | 65 | 277 | 0.0 | 3.0 | 0.00 | 0.27 | 0.01 | 61 | 1011.6 |
| 20260510170107 | 65 | 163 | 1.0 | 3.0 | 0.00 | 0.27 | 0.01 | 62 | 1011.6 |
| 20260510165602 | 64 | 229 | 1.0 | 8.0 | 0.00 | 0.27 | 0.01 | 61 | 1011.6 |
| 20260510165054 | 64 | 215 | 1.0 | 8.0 | 0.00 | 0.27 | 0.01 | 62 | 1011.7 |
| 20260510164550 | 64 | 175 | 1.0 | 4.0 | 0.00 | 0.27 | 0.01 | 62 | 1011.4 |
| 20260510164043 | 64 | 265 | 1.0 | 3.0 | 0.00 | 0.27 | 0.01 | 66 | 1011.4 |
| 20260510163537 | 62 | 237 | 0.0 | 2.0 | 0.00 | 0.27 | 0.01 | 66 | 1011.3 |
| 20260510163031 | 61 | 209 | 0.0 | 0.0 | 0.00 | 0.27 | 0.01 | 69 | 1011.5 |
| 20260510162525 | 60 | 158 | 0.0 | 0.0 | 0.00 | 0.27 | 0.01 | 73 | 1011.5 |
| 20260510162019 | 58 | 101 | 0.0 | 0.0 | 0.00 | 0.27 | 0.01 | 72 | 1011.5 |
| 20260510161741 | 58 | 101 | 0.0 | 0.0 | 0.00 | 0.27 | 0.01 | 73 | 1011.6 |
| 20260510161007 | 57 | 101 | 0.0 | 0.0 | 0.00 | 0.27 | 0.01 | 74 | 1011.7 |
| 20260510160501 | 57 | 101 | 0.0 | 0.0 | 0.00 | 0.27 | 0.01 | 74 | 1011.8 |
| 20260510155955 | 56 | 102 | 0.0 | 0.0 | 0.00 | 0.27 | 0.01 | 74 | 1011.8 |
| 20260510155449 | 56 | 102 | 0.0 | 0.0 | 0.00 | 0.27 | 0.01 | 74 | 1012.0 |
| 20260510154943 | 56 | 102 | 0.0 | 0.0 | 0.00 | 0.27 | 0.01 | 73 | 1012.1 |
| 20260510154701 | 57 | 102 | 0.0 | 0.0 | 0.00 | 0.27 | 0.01 | 73 | 1012.1 |
| 20260510153931 | 57 | 117 | 0.0 | 0.0 | 0.00 | 0.27 | 0.01 | 74 | 1012.1 |
| 20260510153426 | 57 | 237 | 0.0 | 0.0 | 0.00 | 0.27 | 0.01 | 74 | 1012.1 |
| 20260510152926 | 56 | 236 | 0.0 | 0.0 | 0.00 | 0.27 | 0.01 | 75 | 1012.2 |
| 20260510152425 | 56 | 109 | 0.0 | 0.0 | 0.00 | 0.27 | 0.01 | 75 | 1012.2 |
| 20260510151927 | 56 | 179 | 0.0 | 0.0 | 0.00 | 0.27 | 0.01 | 76 | 1012.2 |
| 20260510151426 | 55 | 355 | 0.0 | 0.0 | 0.00 | 0.27 | 0.01 | 76 | 1012.3 |
| 20260510150926 | 55 | 215 | 0.0 | 0.0 | 0.00 | 0.27 | 0.01 | 76 | 1012.4 |
| 20260510150426 | 55 | 222 | 0.0 | 0.0 | 0.00 | 0.27 | 0.01 | 76 | 1012.3 |
| 20260510145927 | 55 | 221 | 0.0 | 0.0 | 0.00 | 0.27 | 0.01 | 76 | 1012.4 |
| 20260510145652 | 55 | 250 | 0.0 | 0.0 | 0.00 | 0.27 | 0.01 | 77 | 1012.3 |
| 20260510144924 | 55 | 262 | 0.0 | 1.0 | 0.00 | 0.27 | 0.01 | 78 | 1012.3 |
| 20260510144422 | 54 | 262 | 0.0 | 4.0 | 0.00 | 0.27 | 0.01 | 78 | 1012.3 |
| 20260510143923 | 54 | 262 | 1.0 | 4.0 | 0.00 | 0.27 | 0.01 | 78 | 1012.1 |
| 20260510143422 | 54 | 231 | 1.0 | 4.0 | 0.00 | 0.27 | 0.01 | 78 | 1012.0 |
| 20260510142921 | 54 | 201 | 1.0 | 4.0 | 0.00 | 0.27 | 0.01 | 79 | 1012.2 |
| 20260510142424 | 54 | 191 | 1.0 | 2.0 | 0.00 | 0.27 | 0.01 | 79 | 1012.3 |
| 20260510141919 | 53 | 319 | 0.0 | 3.0 | 0.00 | 0.27 | 0.01 | 80 | 1012.3 |
| 20260510141419 | 53 | 321 | 0.0 | 3.0 | 0.00 | 0.27 | 0.01 | 80 | 1012.4 |
| 20260510140919 | 53 | 192 | 1.0 | 3.0 | 0.00 | 0.27 | 0.01 | 80 | 1012.5 |
| 20260510140419 | 53 | 191 | 1.0 | 5.0 | 0.00 | 0.27 | 0.01 | 81 | 1012.5 |
| 20260510135919 | 53 | 207 | 1.0 | 5.0 | 0.00 | 0.27 | 0.01 | 81 | 1012.5 |
| 20260510135418 | 53 | 312 | 1.0 | 5.0 | 0.00 | 0.27 | 0.01 | 81 | 1012.5 |
| 20260510135143 | 52 | 218 | 0.0 | 5.0 | 0.00 | 0.27 | 0.01 | 81 | 1012.5 |
| 20260510134418 | 52 | 229 | 0.0 | 0.0 | 0.00 | 0.27 | 0.01 | 81 | 1012.5 |
| 20260510133920 | 52 | 205 | 0.0 | 0.0 | 0.00 | 0.27 | 0.01 | 81 | 1012.6 |
| 20260510133415 | 52 | 227 | 0.0 | 0.0 | 0.00 | 0.27 | 0.01 | 82 | 1012.5 |
| 20260510132914 | 52 | 246 | 0.0 | 0.0 | 0.00 | 0.27 | 0.01 | 82 | 1012.3 |
| 20260510132415 | 51 | 148 | 0.0 | 0.0 | 0.00 | 0.27 | 0.01 | 81 | 1012.1 |
| 20260510131913 | 51 | 69 | 0.0 | 0.0 | 0.00 | 0.27 | 0.01 | 81 | 1012.2 |
| 20260510131414 | 51 | 69 | 0.0 | 0.0 | 0.00 | 0.27 | 0.01 | 82 | 1012.3 |
| 20260510130913 | 50 | 69 | 0.0 | 0.0 | 0.00 | 0.27 | 0.01 | 81 | 1012.5 |
| 20260510130414 | 50 | 69 | 0.0 | 0.0 | 0.00 | 0.27 | 0.01 | 81 | 1012.5 |
| 20260510125914 | 50 | 69 | 0.0 | 0.0 | 0.00 | 0.27 | 0.01 | 81 | 1012.4 |
| 20260510125415 | 50 | 69 | 0.0 | 0.0 | 0.00 | 0.27 | 0.01 | 81 | 1012.4 |
| 20260510124913 | 50 | 69 | 0.0 | 0.0 | 0.00 | 0.27 | 0.01 | 81 | 1012.4 |
| 20260510124413 | 50 | 69 | 0.0 | 0.0 | 0.00 | 0.27 | 0.01 | 81 | 1012.6 |
| 20260510123915 | 49 | 69 | 0.0 | 0.0 | 0.00 | 0.27 | 0.01 | 81 | 1012.6 |
| 20260510123412 | 49 | 69 | 0.0 | 0.0 | 0.00 | 0.27 | 0.01 | 81 | 1012.5 |
| 20260510122912 | 49 | 69 | 0.0 | 0.0 | 0.00 | 0.27 | 0.01 | 81 | 1012.5 |
| 20260510122410 | 49 | 69 | 0.0 | 0.0 | 0.00 | 0.27 | 0.01 | 81 | 1012.8 |
| 20260510122127 | 49 | 69 | 0.0 | 0.0 | 0.00 | 0.27 | 0.01 | 81 | 1012.8 |
| 20260510121629 | 49 | 69 | 0.0 | 0.0 | 0.00 | 0.27 | 0.01 | 81 | 1012.6 |
| 20260510120907 | 49 | 69 | 0.0 | 0.0 | 0.00 | 0.27 | 0.01 | 81 | 1012.6 |
| 20260510120407 | 49 | 69 | 0.0 | 0.0 | 0.00 | 0.27 | 0.01 | 81 | 1012.2 |
| 20260510115904 | 49 | 69 | 0.0 | 0.0 | 0.00 | 0.27 | 0.01 | 81 | 1012.3 |
| 20260510115401 | 49 | 69 | 0.0 | 0.0 | 0.00 | 0.27 | 0.01 | 81 | 1012.2 |
| 20260510114900 | 49 | 68 | 0.0 | 0.0 | 0.00 | 0.27 | 0.01 | 81 | 1012.2 |
| 20260510114400 | 49 | 68 | 0.0 | 0.0 | 0.00 | 0.27 | 0.01 | 82 | 1012.2 |
| 20260510114120 | 49 | 68 | 0.0 | 0.0 | 0.00 | 0.27 | 0.01 | 82 | 1012.3 |
| 20260510113348 | 48 | 68 | 0.0 | 0.0 | 0.00 | 0.27 | 0.01 | 82 | 1012.1 |
| 20260510113102 | 48 | 65 | 0.0 | 0.0 | 0.00 | 0.27 | 0.01 | 82 | 1012.2 |
| 20260510112336 | 48 | 65 | 0.0 | 0.0 | 0.00 | 0.27 | 0.01 | 82 | 1012.1 |
| 20260510111830 | 48 | 65 | 0.0 | 0.0 | 0.00 | 0.27 | 0.01 | 82 | 1011.9 |
| 20260510111324 | 47 | 65 | 0.0 | 0.0 | 0.00 | 0.27 | 0.01 | 81 | 1011.7 |
| 20260510111038 | 47 | 65 | 0.0 | 1.0 | 0.00 | 0.27 | 0.01 | 81 | 1011.6 |
| 20260510110312 | 47 | 65 | 0.0 | 1.0 | 0.00 | 0.27 | 0.01 | 81 | 1011.7 |
| 20260510105806 | 47 | 65 | 0.0 | 0.0 | 0.00 | 0.27 | 0.01 | 81 | 1011.4 |
| 20260510105518 | 47 | 65 | 0.0 | 1.0 | 0.00 | 0.27 | 0.01 | 81 | 1011.6 |
| 20260510104754 | 47 | 65 | 0.0 | 1.0 | 0.00 | 0.27 | 0.01 | 81 | 1011.5 |
| 20260510104248 | 46 | 65 | 0.0 | 0.0 | 0.00 | 0.27 | 0.01 | 81 | 1011.2 |
| 20260510103742 | 46 | 65 | 0.0 | 0.0 | 0.00 | 0.27 | 0.01 | 81 | 1011.2 |
| 20260510103236 | 46 | 65 | 0.0 | 0.0 | 0.00 | 0.27 | 0.01 | 81 | 1011.1 |
| 20260510102730 | 46 | 65 | 0.0 | 0.0 | 0.00 | 0.27 | 0.01 | 81 | 1011.0 |
| 20260510102442 | 46 | 65 | 0.0 | 1.0 | 0.00 | 0.27 | 0.01 | 81 | 1011.1 |
| 20260510101718 | 46 | 65 | 0.0 | 1.0 | 0.00 | 0.27 | 0.01 | 81 | 1011.1 |
| 20260510101212 | 46 | 65 | 0.0 | 1.0 | 0.00 | 0.27 | 0.01 | 81 | 1011.2 |
| 20260510100706 | 45 | 65 | 0.0 | 1.0 | 0.00 | 0.27 | 0.01 | 81 | 1011.1 |
| 20260510100200 | 45 | 65 | 0.0 | 1.0 | 0.00 | 0.27 | 0.01 | 81 | 1010.7 |
| 20260510095654 | 45 | 65 | 0.0 | 0.0 | 0.00 | 0.27 | 0.01 | 81 | 1010.8 |
| 20260510095148 | 45 | 65 | 0.0 | 1.0 | 0.00 | 0.27 | 0.01 | 81 | 1011.1 |
| 20260510094642 | 45 | 65 | 0.0 | 1.0 | 0.00 | 0.27 | 0.01 | 81 | 1011.0 |
| 20260510094136 | 45 | 65 | 0.0 | 0.0 | 0.00 | 0.27 | 0.01 | 81 | 1010.8 |
| 20260510093630 | 45 | 65 | 0.0 | 0.0 | 0.00 | 0.27 | 0.01 | 81 | 1010.8 |
| 20260510093124 | 45 | 65 | 0.0 | 1.0 | 0.00 | 0.27 | 0.01 | 81 | 1010.9 |
| 20260510092619 | 45 | 65 | 0.0 | 1.0 | 0.00 | 0.27 | 0.01 | 81 | 1011.0 |
| 20260510092112 | 45 | 65 | 0.0 | 0.0 | 0.00 | 0.27 | 0.01 | 80 | 1011.1 |
| 20260510091606 | 45 | 65 | 0.0 | 0.0 | 0.00 | 0.27 | 0.01 | 81 | 1011.1 |
| 20260510091059 | 45 | 65 | 0.0 | 0.0 | 0.00 | 0.27 | 0.01 | 81 | 1011.0 |
| 20260510090554 | 45 | 65 | 0.0 | 0.0 | 0.00 | 0.27 | 0.01 | 81 | 1011.3 |
| 20260510090048 | 45 | 65 | 0.0 | 0.0 | 0.00 | 0.27 | 0.01 | 80 | 1011.3 |
| 20260510085542 | 45 | 65 | 0.0 | 0.0 | 0.00 | 0.27 | 0.01 | 80 | 1011.1 |
| 20260510085036 | 45 | 65 | 0.0 | 0.0 | 0.00 | 0.27 | 0.01 | 80 | 1011.2 |
| 20260510084755 | 45 | 65 | 0.0 | 0.0 | 0.00 | 0.27 | 0.01 | 80 | 1011.1 |
| 20260510084333 | 45 | 65 | 0.0 | 0.0 | 0.00 | 0.27 | 0.01 | 80 | 1010.9 |
| 20260510083012 | 45 | 65 | 0.0 | 0.0 | 0.00 | 0.27 | 0.01 | 80 | 1010.9 |
| 20260510082731 | 45 | 65 | 0.0 | 0.0 | 0.00 | 0.27 | 0.01 | 80 | 1010.9 |
| 20260510082222 | 45 | 65 | 0.0 | 0.0 | 0.00 | 0.27 | 0.01 | 80 | 1011.1 |
| 20260510081455 | 45 | 65 | 0.0 | 0.0 | 0.00 | 0.27 | 0.01 | 80 | 1011.2 |
| 20260510080948 | 45 | 65 | 0.0 | 0.0 | 0.00 | 0.27 | 0.01 | 80 | 1011.4 |
| 20260510080442 | 45 | 65 | 0.0 | 0.0 | 0.00 | 0.27 | 0.01 | 80 | 1011.5 |
| 20260510075936 | 45 | 65 | 0.0 | 0.0 | 0.00 | 0.27 | 0.01 | 80 | 1011.4 |
| 20260510075430 | 45 | 65 | 0.0 | 0.0 | 0.00 | 0.27 | 0.01 | 81 | 1011.3 |
| 20260510074924 | 45 | 65 | 0.0 | 0.0 | 0.00 | 0.27 | 0.01 | 81 | 1011.4 |
| 20260510074418 | 45 | 65 | 0.0 | 0.0 | 0.00 | 0.27 | 0.01 | 81 | 1011.4 |
| 20260510074401 | 45 | 65 | 0.0 | 0.0 | 0.00 | 0.27 | 0.01 | 81 | 1011.2 |
| 20260510073406 | 45 | 65 | 0.0 | 0.0 | 0.00 | 0.27 | 0.01 | 81 | 1011.2 |
| 20260510072900 | 45 | 65 | 0.0 | 1.0 | 0.00 | 0.27 | 0.01 | 81 | 1011.1 |
| 20260510072619 | 45 | 65 | 0.0 | 1.0 | 0.00 | 0.27 | 0.01 | 81 | 1011.1 |
| 20260510071848 | 45 | 65 | 0.0 | 0.0 | 0.00 | 0.27 | 0.01 | 81 | 1011.0 |
| 20260510071342 | 45 | 65 | 0.0 | 0.0 | 0.00 | 0.27 | 0.01 | 81 | 1011.0 |
| 20260510070836 | 45 | 65 | 0.0 | 0.0 | 0.00 | 0.27 | 0.01 | 80 | 1011.1 |
| 20260510070330 | 45 | 65 | 0.0 | 0.0 | 0.00 | 0.27 | 0.01 | 80 | 1011.2 |
| 20260510065825 | 45 | 65 | 0.0 | 0.0 | 0.00 | 0.27 | 0.01 | 80 | 1011.2 |
| 20260510065540 | 45 | 65 | 0.0 | 0.0 | 0.00 | 0.27 | 0.01 | 80 | 1011.1 |
| 20260510064812 | 45 | 65 | 0.0 | 1.0 | 0.00 | 0.27 | 0.01 | 80 | 1011.1 |
| 20260510064306 | 45 | 65 | 0.0 | 1.0 | 0.00 | 0.27 | 0.01 | 81 | 1011.4 |
| 20260510063800 | 45 | 65 | 0.0 | 0.0 | 0.00 | 0.27 | 0.01 | 80 | 1011.4 |
| 20260510063256 | 45 | 65 | 0.0 | 0.0 | 0.00 | 0.27 | 0.01 | 81 | 1011.5 |
| 20260510062748 | 45 | 65 | 0.0 | 0.0 | 0.00 | 0.27 | 0.01 | 80 | 1011.8 |
| 20260510062503 | 45 | 65 | 0.0 | 0.0 | 0.00 | 0.27 | 0.01 | 80 | 1011.8 |
| 20260510061737 | 45 | 65 | 0.0 | 0.0 | 0.00 | 0.27 | 0.01 | 80 | 1011.9 |
| 20260510061230 | 45 | 65 | 0.0 | 0.0 | 0.00 | 0.27 | 0.01 | 80 | 1011.9 |
| 20260510060724 | 45 | 65 | 0.0 | 0.0 | 0.00 | 0.27 | 0.01 | 80 | 1011.9 |
| 20260510060219 | 45 | 65 | 0.0 | 0.0 | 0.01 | 0.27 | 0.01 | 80 | 1012.0 |
| 20260510055712 | 45 | 65 | 0.0 | 0.0 | 0.01 | 0.27 | 0.01 | 80 | 1011.9 |
| 20260510055206 | 45 | 65 | 0.0 | 0.0 | 0.01 | 0.27 | 0.01 | 80 | 1011.9 |
| 20260510054701 | 45 | 65 | 0.0 | 0.0 | 0.01 | 0.27 | 0.01 | 80 | 1011.9 |
| 20260510054154 | 45 | 65 | 0.0 | 0.0 | 0.01 | 0.27 | 0.01 | 80 | 1012.1 |
| 20260510053916 | 45 | 65 | 0.0 | 1.0 | 0.01 | 0.27 | 0.01 | 80 | 1012.1 |
| 20260510053142 | 45 | 65 | 0.0 | 1.0 | 0.01 | 0.27 | 0.01 | 80 | 1012.1 |
| 20260510052636 | 45 | 65 | 0.0 | 0.0 | 0.01 | 0.27 | 0.01 | 80 | 1012.1 |
| 20260510052130 | 45 | 65 | 0.0 | 0.0 | 0.01 | 0.27 | 0.01 | 80 | 1012.2 |
| 20260510051624 | 45 | 65 | 0.0 | 0.0 | 0.01 | 0.27 | 0.01 | 80 | 1012.2 |
| 20260510051118 | 45 | 65 | 0.0 | 0.0 | 0.01 | 0.27 | 0.01 | 80 | 1012.1 |
| 20260510050619 | 45 | 65 | 0.0 | 1.0 | 0.01 | 0.27 | 0.01 | 80 | 1012.2 |
| 20260510050115 | 44 | 65 | 0.0 | 1.0 | 0.00 | 0.26 | 0.00 | 80 | 1012.1 |
| 20260510045614 | 44 | 65 | 0.0 | 0.0 | 0.00 | 0.26 | 0.00 | 80 | 1012.0 |
| 20260510045111 | 44 | 65 | 0.0 | 0.0 | 0.00 | 0.26 | 0.00 | 80 | 1012.1 |
| 20260510044612 | 44 | 65 | 0.0 | 0.0 | 0.00 | 0.26 | 0.00 | 80 | 1012.1 |
| 20260510044112 | 44 | 65 | 0.0 | 0.0 | 0.00 | 0.26 | 0.00 | 80 | 1012.2 |
| 20260510043609 | 44 | 65 | 0.0 | 0.0 | 0.00 | 0.26 | 0.00 | 80 | 1012.3 |
| 20260510043108 | 44 | 65 | 0.0 | 0.0 | 0.00 | 0.26 | 0.00 | 80 | 1012.3 |
| 20260510042606 | 44 | 65 | 0.0 | 0.0 | 0.00 | 0.26 | 0.00 | 80 | 1012.2 |
| 20260510042105 | 44 | 65 | 0.0 | 0.0 | 0.00 | 0.26 | 0.00 | 80 | 1012.3 |
| 20260510041604 | 44 | 65 | 0.0 | 0.0 | 0.00 | 0.26 | 0.00 | 80 | 1012.3 |
| 20260510041101 | 44 | 65 | 0.0 | 0.0 | 0.00 | 0.26 | 0.00 | 80 | 1012.3 |
| 20260510040601 | 44 | 65 | 0.0 | 0.0 | 0.00 | 0.26 | 0.00 | 80 | 1012.5 |
| 20260510040405 | 44 | 65 | 0.0 | 0.0 | 0.00 | 0.26 | 0.00 | 80 | 1012.6 |
| 20260510035058 | 44 | 65 | 0.0 | 1.0 | 0.01 | 0.26 | 0.26 | 80 | 1012.5 |
| 20260510034557 | 44 | 65 | 0.0 | 1.0 | 0.02 | 0.26 | 0.26 | 80 | 1012.4 |
| 20260510034056 | 44 | 65 | 0.0 | 1.0 | 0.02 | 0.26 | 0.26 | 80 | 1012.4 |
| 20260510033825 | 44 | 65 | 0.0 | 1.0 | 0.03 | 0.26 | 0.26 | 80 | 1012.4 |
| 20260510033045 | 44 | 65 | 0.0 | 0.0 | 0.03 | 0.26 | 0.26 | 80 | 1012.5 |
| 20260510032538 | 44 | 65 | 0.0 | 0.0 | 0.03 | 0.26 | 0.26 | 80 | 1012.7 |
| 20260510032032 | 44 | 65 | 0.0 | 1.0 | 0.03 | 0.26 | 0.26 | 80 | 1012.8 |
| 20260510031527 | 44 | 65 | 0.0 | 1.0 | 0.03 | 0.26 | 0.26 | 80 | 1012.8 |
| 20260510031021 | 44 | 65 | 0.0 | 0.0 | 0.03 | 0.26 | 0.26 | 80 | 1012.7 |
| 20260510030514 | 44 | 65 | 0.0 | 0.0 | 0.03 | 0.26 | 0.26 | 80 | 1012.7 |
| 20260510030008 | 44 | 65 | 0.0 | 0.0 | 0.02 | 0.25 | 0.26 | 80 | 1012.7 |
| 20260510025722 | 44 | 65 | 0.0 | 0.0 | 0.02 | 0.25 | 0.25 | 80 | 1012.9 |
| 20260510025219 | 44 | 65 | 0.0 | 0.0 | 0.02 | 0.25 | 0.25 | 80 | 1012.9 |
| 20260510024450 | 44 | 65 | 0.0 | 0.0 | 0.01 | 0.24 | 0.24 | 80 | 1013.1 |
| 20260510023944 | 44 | 65 | 0.0 | 0.0 | 0.01 | 0.24 | 0.24 | 80 | 1013.2 |
| 20260510023438 | 44 | 65 | 0.0 | 0.0 | 0.00 | 0.23 | 0.23 | 80 | 1013.2 |
| 20260510022932 | 44 | 65 | 0.0 | 0.0 | 0.00 | 0.23 | 0.23 | 80 | 1013.2 |
| 20260510022425 | 44 | 65 | 0.0 | 0.0 | 0.00 | 0.23 | 0.23 | 80 | 1013.3 |
| 20260510021919 | 44 | 65 | 0.0 | 0.0 | 0.00 | 0.23 | 0.23 | 80 | 1013.3 |
| 20260510021414 | 44 | 65 | 0.0 | 0.0 | 0.00 | 0.23 | 0.23 | 80 | 1013.2 |
| 20260510020909 | 44 | 65 | 0.0 | 0.0 | 0.00 | 0.23 | 0.23 | 80 | 1013.4 |
| 20260510020402 | 44 | 65 | 0.0 | 0.0 | 0.00 | 0.23 | 0.23 | 80 | 1013.2 |
| 20260510015856 | 44 | 65 | 0.0 | 1.0 | 0.00 | 0.23 | 0.23 | 80 | 1013.2 |
| 20260510015350 | 44 | 65 | 0.0 | 0.0 | 0.00 | 0.23 | 0.23 | 80 | 1013.3 |
| 20260510014844 | 44 | 65 | 0.0 | 0.0 | 0.00 | 0.23 | 0.23 | 80 | 1013.3 |
| 20260510014338 | 44 | 65 | 0.0 | 0.0 | 0.00 | 0.23 | 0.23 | 79 | 1013.4 |
| 20260510013832 | 44 | 65 | 0.0 | 0.0 | 0.00 | 0.23 | 0.23 | 79 | 1013.5 |
| 20260510013326 | 44 | 65 | 0.0 | 1.0 | 0.00 | 0.23 | 0.23 | 79 | 1013.4 |
| 20260510013045 | 44 | 65 | 0.0 | 1.0 | 0.00 | 0.23 | 0.23 | 79 | 1013.3 |
| 20260510012314 | 44 | 65 | 0.0 | 1.0 | 0.00 | 0.23 | 0.23 | 79 | 1013.2 |
| 20260510011814 | 44 | 65 | 0.0 | 1.0 | 0.00 | 0.23 | 0.23 | 79 | 1013.0 |
| 20260510011314 | 44 | 65 | 0.0 | 1.0 | 0.00 | 0.23 | 0.23 | 79 | 1013.1 |
| 20260510010812 | 44 | 65 | 0.0 | 1.0 | 0.01 | 0.23 | 0.23 | 79 | 1013.1 |
| 20260510010311 | 44 | 65 | 0.0 | 2.0 | 0.01 | 0.23 | 0.23 | 79 | 1013.1 |
| 20260510005812 | 44 | 65 | 0.0 | 2.0 | 0.01 | 0.23 | 0.23 | 79 | 1013.0 |
| 20260510005311 | 44 | 65 | 0.0 | 1.0 | 0.01 | 0.23 | 0.23 | 79 | 1013.0 |
| 20260510004811 | 44 | 65 | 0.0 | 2.0 | 0.01 | 0.23 | 0.23 | 79 | 1013.1 |
| 20260510004312 | 44 | 65 | 0.0 | 2.0 | 0.01 | 0.23 | 0.23 | 79 | 1013.0 |
| 20260510003812 | 44 | 65 | 0.0 | 3.0 | 0.01 | 0.23 | 0.23 | 79 | 1013.0 |
| 20260510003308 | 44 | 65 | 1.0 | 3.0 | 0.01 | 0.23 | 0.23 | 79 | 1012.8 |
| 20260510002806 | 44 | 108 | 1.0 | 3.0 | 0.01 | 0.23 | 0.23 | 79 | 1012.8 |
| 20260510002307 | 44 | 108 | 1.0 | 3.0 | 0.01 | 0.23 | 0.23 | 79 | 1012.8 |
| 20260510001807 | 44 | 67 | 1.0 | 2.0 | 0.02 | 0.23 | 0.23 | 79 | 1012.8 |
| 20260510001307 | 44 | 67 | 1.0 | 2.0 | 0.02 | 0.23 | 0.23 | 79 | 1012.8 |
| 20260510000806 | 44 | 63 | 1.0 | 3.0 | 0.01 | 0.22 | 0.22 | 79 | 1012.8 |
| 20260510000307 | 44 | 63 | 1.0 | 3.0 | 0.02 | 0.22 | 0.22 | 79 | 1012.9 |
| 20260509235808 | 44 | 64 | 1.0 | 2.0 | 0.02 | 0.22 | 0.22 | 79 | 1013.0 |
| 20260509235308 | 44 | 64 | 0.0 | 2.0 | 0.02 | 0.22 | 0.22 | 79 | 1013.0 |
| 20260509234806 | 44 | 64 | 0.0 | 2.0 | 0.02 | 0.22 | 0.22 | 79 | 1013.1 |
| 20260509234308 | 44 | 64 | 0.0 | 2.0 | 0.02 | 0.22 | 0.22 | 79 | 1013.1 |
| 20260509233808 | 44 | 64 | 0.0 | 1.0 | 0.03 | 0.22 | 0.22 | 79 | 1013.1 |
| 20260509233308 | 44 | 64 | 0.0 | 1.0 | 0.03 | 0.22 | 0.22 | 79 | 1013.2 |
| 20260509232807 | 44 | 64 | 0.0 | 0.0 | 0.03 | 0.22 | 0.22 | 79 | 1013.3 |
| 20260509232532 | 44 | 64 | 0.0 | 0.0 | 0.03 | 0.22 | 0.22 | 79 | 1013.3 |
| 20260509231807 | 44 | 64 | 0.0 | 0.0 | 0.02 | 0.21 | 0.22 | 79 | 1013.2 |
| 20260509231359 | 44 | 64 | 0.0 | 0.0 | 0.02 | 0.21 | 0.21 | 79 | 1013.2 |
| 20260509230301 | 44 | 64 | 0.0 | 1.0 | 0.02 | 0.20 | 0.21 | 78 | 1013.3 |
| 20260509225755 | 44 | 64 | 0.0 | 1.0 | 0.03 | 0.20 | 0.20 | 78 | 1013.3 |
| 20260509225249 | 44 | 64 | 0.0 | 0.0 | 0.03 | 0.20 | 0.20 | 78 | 1013.5 |
| 20260509224743 | 44 | 64 | 0.0 | 1.0 | 0.04 | 0.20 | 0.20 | 78 | 1013.5 |
| 20260509224505 | 44 | 64 | 0.0 | 1.0 | 0.04 | 0.20 | 0.20 | 77 | 1013.4 |
| 20260509223732 | 44 | 64 | 0.0 | 2.0 | 0.04 | 0.19 | 0.19 | 77 | 1013.3 |
| 20260509223225 | 44 | 64 | 0.0 | 2.0 | 0.04 | 0.19 | 0.19 | 77 | 1013.3 |
| 20260509222719 | 44 | 64 | 0.0 | 2.0 | 0.05 | 0.19 | 0.19 | 77 | 1013.3 |
| 20260509222213 | 44 | 64 | 0.0 | 3.0 | 0.05 | 0.19 | 0.19 | 77 | 1013.3 |
| 20260509221927 | 44 | 64 | 1.0 | 3.0 | 0.05 | 0.19 | 0.19 | 77 | 1013.3 |
| 20260509221201 | 44 | 60 | 1.0 | 2.0 | 0.05 | 0.19 | 0.19 | 77 | 1013.4 |
| 20260509220655 | 44 | 60 | 0.0 | 2.0 | 0.04 | 0.18 | 0.18 | 77 | 1013.6 |
| 20260509220150 | 44 | 60 | 1.0 | 3.0 | 0.04 | 0.18 | 0.18 | 76 | 1013.6 |
| 20260509215643 | 44 | 60 | 1.0 | 3.0 | 0.04 | 0.17 | 0.17 | 76 | 1013.7 |
| 20260509215357 | 44 | 136 | 1.0 | 3.0 | 0.03 | 0.16 | 0.17 | 76 | 1013.6 |
| 20260509214631 | 45 | 138 | 1.0 | 3.0 | 0.03 | 0.16 | 0.16 | 76 | 1013.7 |
| 20260509214125 | 45 | 221 | 0.0 | 3.0 | 0.03 | 0.16 | 0.16 | 76 | 1013.9 |
| 20260509213619 | 45 | 227 | 1.0 | 3.0 | 0.02 | 0.15 | 0.15 | 76 | 1013.9 |
| 20260509213113 | 45 | 154 | 1.0 | 3.0 | 0.02 | 0.15 | 0.15 | 76 | 1013.8 |
| 20260509212607 | 45 | 97 | 1.0 | 2.0 | 0.01 | 0.14 | 0.14 | 76 | 1013.7 |
| 20260509212324 | 45 | 83 | 1.0 | 3.0 | 0.01 | 0.14 | 0.14 | 75 | 1013.6 |
| 20260509211555 | 45 | 83 | 1.0 | 3.0 | 0.02 | 0.14 | 0.14 | 75 | 1013.6 |
| 20260509211049 | 45 | 150 | 1.0 | 2.0 | 0.02 | 0.14 | 0.14 | 76 | 1013.6 |
| 20260509210543 | 45 | 127 | 0.0 | 2.0 | 0.02 | 0.14 | 0.14 | 75 | 1013.3 |
| 20260509210037 | 45 | 127 | 0.0 | 2.0 | 0.03 | 0.14 | 0.14 | 75 | 1013.1 |
| 20260509205531 | 45 | 127 | 0.0 | 3.0 | 0.02 | 0.13 | 0.13 | 75 | 1013.5 |
| 20260509205026 | 45 | 127 | 1.0 | 3.0 | 0.03 | 0.13 | 0.13 | 75 | 1013.7 |